sat.trackr.live / text

‹ back to catalog

STARLINK-1231

NORAD 45212 · 2020-012AL

PAYLOAD ACTIVE UNKNOWN

§ Identity

Operator
Country
US
Launch date
2020-02-17
Launch site
AFETR
Launch vehicle
Mass (kg)
RCS (m²)

Purposes: comms

External: N2YO · Heavens-Above · Gunter

§ Orbital elements

Epoch: 2026-05-25T01:39:00.400896Z

Period
94.31 min
Inclination
53.0399°
Eccentricity
0.0003721
Mean motion
15.26813428 rev/d
Perigee alt
482.8 km
Apogee alt
487.9 km
Semi-major
6,863.5 km
B*
1.2802e-3
RAAN
23.2614°
Arg perigee
60.7175°
Mean anomaly
299.4194°
Rev number
34,687

§ Raw data

STARLINK-12311 45212U 20012AL  26145.06875464  .00033998  00000+0  12802-2 0  99932 45212  53.0399  23.2614 0003721  60.7175 299.4194 15.26813428346878

JSON: /api/v1/satellites/45212 · /tle

For live sub-satellite position, see the globe view (requires WebGL).

§ Visibility from observer

Set your observer location to see the next 7 days of passes ≥ 10°. The values pass through the URL so the page stays shareable.

No JS? Fill the form by hand. The geolocation button needs JavaScript.